Weather in Ganzhou

China     25°50′16″N   114°55′49″E
temp.,
°C
wind,
m/s
gust,
m/s
humid.,
%
clouds,
%
prec.,
mm/h
press.,
hPa
HPBL,
m
13 april, tue
tue1323:00+19n2489100 0.0 1016251
02:00+18n249233 0.0 1016229
05:00+17n239386 0.0 1016194
08:00+19n128896 0.0 1017297
11:00+21n1180100 0.0 1017644
14:00+24n226999 0.0 1014931
17:00+24nne336813 0.0 1012759
20:00+19n248636 0.0 1015221
14 april, wed
wed1423:00+18n249077 0.3 1016271
02:00+18n2493100 1.3 1015349
05:00+17n2394100 0.4 1015338
08:00+17nnw1293100 0.4 1016281
11:00+18nw1189100 0.1 1016324
14:00+18n2289100 0.3 1014402
17:00+17n3489100 0.1 1014385
20:00+17n2392100 0.3 1014283
15 april, thu
thu1523:00+17nnw239199 0.5 1016252
02:00+16nnw2395100 4.0 1014230
05:00+16n1294100 2.2 1014220
08:00+16nne1298100 16.1 1015204
11:00+17wnw2392100 6.1 1016396
14:00+17ene1193100 6.9 1014226
17:00+18nne2391100 0.1 1015349
20:00+17n2293100 0.1 1017134
16 april, fri
fri1623:00+17n2394100 0.0 1018181
02:00+16nnw1294100 0.0 1017139
05:00+15nne239652 0.0 1017123
08:00+17n228861 0.0 1018411
11:00+21n227175 0.0 1018860
14:00+23n226382 0.1 10161133
17:00+22n3467100 0.0 1015645
20:00+19n2485100 0.1 1018263
17 april, sat
sat1723:00+18n239197 0.1 1019260
02:00+17n2392100 0.1 1018288
05:00+17n129198 0.0 1018254
08:00+18n1291100 0.2 1019295
11:00+17nnw2493100 0.5 1020351
14:00+17n2493100 1.3 1019345
17:00+16n2497100 5.3 1019280
20:00+16nne2497100 10.8 1021310